User: anonymous   Login
Location: Owatonna
(44.0840°N, 93.2260°W)
Time: 18:50:02
(UTC-05:00)
Language:

Cosmos 839 Rocket - Orbit

View from above orbital plane
View from above orbital plane
View from above satellite
View from above satellite

Ground track
Ground track

The orbit data is extracted from the following two-line orbital elements,

1 09013U 76067B   15242.17496334 -.00000068  00000-0 -40779-4 0  9997
2 09013 065.8640 202.1195 0718724 329.9273 110.3586 12.35317667765494
Epoch (UTC): 30 August 2015 04:11:56
Eccentricity: 0.0718724
inclination: 65.8640°
perigee height: 958 km
apogee height: 2094 km
right ascension of ascending node: 202.1195°
argument of perigee: 329.9273°
revolutions per day: 12.35317667
mean anomaly at epoch: 110.3586°
orbit number at epoch: 76549

The dashed part of the orbit path shows where the satellite is in the earth's shadow,  

DLR